Charter Quote
Worldwide +44-20-3874-8091 Call
Select Language Lang
SAFETY RELIABILITY EXPERIENCE

Kastner Aaf Airport (RJTR) - Jet Charter Services

AIRPORT INFORMATION
ICAORJTR
LOCATIONTokyo, Japan
FACILITY TYPEAIRPORT

At Paramount Business Jets you can hire chartered private jets to and from Kastner Aaf Airport with as little as 4 hours of notice. All flights booked via Paramount Business Jets are operated by certified direct air carriers that meet and exceed the FAA part 135 and 121 protocol or a foreign equivalent safety authority. Furthermore, Paramount Business Jets subscribes to ARGUS for their third party safety checks of operators, aircraft, and crews prior each and every flight to and from Kastner Aaf Airport and worldwide.

  • Quote a trip using Kastner Aaf Airport or call us 24/7 - 365 days a year at +44-20-3874-8091.
Questions? Call +44-20-3874-8091

METAR Weather Data at Kastner Aaf Airport, RJTR

STATIONRJTR
OBSERVEDThu Jun 20, 19:23 UTC
NOWThu Jun 20, 23:08 UTC
AGE3:45 hr ago
WINDW at 3 mph
VISIBILITY6 miles
CONDITIONSmist
CLOUDSmostly cloudy
TEMP70°F (21°C)
DEWPT66°F (19°C)
HUMIDITY88%
BAROMETER1009 hPa (29.79 in Hg)
METARRJTR 201923Z AUTO 27003KT 6SM BR SCT008 BKN016 21/19 A2979 RMK AO2 CIG 008V016 SLP087 $

Call us on +44-20-3874-8091 (24 Hours) to Hire a Private Jet or Get a Quick Quote.

Find Airports Near any Location

Processing
...